| time (UTC) | temp F | wind direction | speed MPH | gust MPH | rain 1hr in | rain 24hr in | rain mn in | humidity % | barometer mb |
| 20260906104557 | 71 | 103 | 0.0 | 2.0 | 0.00 | 0.00 | 0.00 | 94 | 1014.5 |
| 20260906104037 | 71 | 0 | 0.0 | 5.0 | 0.00 | 0.00 | 0.00 | 94 | 1014.4 |
| 20260906103534 | 71 | 0 | 0.0 | 5.0 | 0.00 | 0.00 | 0.00 | 94 | 1014.2 |
| 20260906103048 | 71 | 86 | 1.0 | 5.0 | 0.00 | 0.00 | 0.00 | 94 | 1014.1 |
| 20260906102534 | 71 | 0 | 0.0 | 1.0 | 0.00 | 0.00 | 0.00 | 94 | 1013.8 |
| 20260906102034 | 71 | 0 | 0.0 | 1.0 | 0.00 | 0.00 | 0.00 | 94 | 1013.8 |
| 20260906101557 | 71 | 0 | 0.0 | 1.0 | 0.00 | 0.00 | 0.00 | 94 | 1013.7 |
| 20260906101035 | 71 | 0 | 0.0 | 4.0 | 0.00 | 0.00 | 0.00 | 94 | 1013.5 |
| 20260906100536 | 71 | 96 | 0.0 | 5.0 | 0.00 | 0.00 | 0.00 | 94 | 1013.6 |
| 20260906100050 | 71 | 92 | 2.0 | 6.0 | 0.00 | 0.00 | 0.00 | 94 | 1013.6 |
| 20260906095533 | 71 | 89 | 2.0 | 6.0 | 0.00 | 0.00 | 0.00 | 95 | 1013.4 |
| 20260906095034 | 70 | 69 | 3.0 | 6.0 | 0.00 | 0.00 | 0.00 | 97 | 1013.4 |
| 20260906094605 | 70 | 121 | 0.0 | 2.0 | 0.00 | 0.00 | 0.00 | 96 | 1013.5 |
| 20260906094040 | 70 | 0 | 0.0 | 0.0 | 0.00 | 0.00 | 0.00 | 97 | 1013.5 |
| 20260906093535 | 69 | 0 | 0.0 | 0.0 | 0.00 | 0.00 | 0.00 | 96 | 1013.7 |
| 20260906093116 | 69 | 0 | 0.0 | 0.0 | 0.00 | 0.00 | 0.00 | 96 | 1013.7 |
| 20260906092534 | 69 | 0 | 0.0 | 0.0 | 0.00 | 0.00 | 0.00 | 96 | 1013.6 |
| 20260906092034 | 69 | 0 | 0.0 | 0.0 | 0.00 | 0.00 | 0.00 | 96 | 1013.6 |
| 20260906091606 | 69 | 0 | 0.0 | 0.0 | 0.00 | 0.00 | 0.00 | 97 | 1013.5 |
| 20260906091036 | 69 | 0 | 0.0 | 0.0 | 0.00 | 0.00 | 0.00 | 97 | 1013.5 |
| 20260906090535 | 69 | 0 | 0.0 | 0.0 | 0.00 | 0.00 | 0.00 | 97 | 1013.6 |
| 20260906090053 | 69 | 0 | 0.0 | 0.0 | 0.00 | 0.00 | 0.00 | 97 | 1013.5 |
| 20260906085534 | 69 | 0 | 0.0 | 0.0 | 0.00 | 0.00 | 0.00 | 97 | 1013.6 |
| 20260906085034 | 69 | 0 | 0.0 | 0.0 | 0.00 | 0.00 | 0.00 | 97 | 1013.4 |
| 20260906084549 | 68 | 0 | 0.0 | 0.0 | 0.00 | 0.00 | 0.00 | 97 | 1013.3 |
| 20260906084035 | 68 | 0 | 0.0 | 0.0 | 0.00 | 0.00 | 0.00 | 97 | 1013.2 |
| 20260906083534 | 68 | 0 | 0.0 | 0.0 | 0.00 | 0.00 | 0.00 | 97 | 1013.2 |
| 20260906083057 | 68 | 0 | 0.0 | 0.0 | 0.00 | 0.00 | 0.00 | 97 | 1013.1 |
| 20260906082534 | 68 | 0 | 0.0 | 0.0 | 0.00 | 0.00 | 0.00 | 96 | 1013.1 |
| 20260906082036 | 68 | 0 | 0.0 | 0.0 | 0.00 | 0.00 | 0.00 | 97 | 1013.1 |
| 20260906081555 | 68 | 0 | 0.0 | 0.0 | 0.00 | 0.00 | 0.00 | 97 | 1013.1 |
| 20260906081034 | 68 | 0 | 0.0 | 0.0 | 0.00 | 0.00 | 0.00 | 96 | 1013.1 |
| 20260906080534 | 68 | 0 | 0.0 | 0.0 | 0.00 | 0.00 | 0.00 | 96 | 1013.1 |
| 20260906080053 | 68 | 0 | 0.0 | 0.0 | 0.00 | 0.00 | 0.00 | 96 | 1013.1 |
| 20260906075533 | 68 | 0 | 0.0 | 0.0 | 0.00 | 0.00 | 0.00 | 96 | 1013.0 |
| 20260906075034 | 68 | 0 | 0.0 | 0.0 | 0.00 | 0.00 | 0.00 | 96 | 1013.0 |
| 20260906074553 | 68 | 0 | 0.0 | 1.0 | 0.00 | 0.00 | 0.00 | 96 | 1013.1 |
| 20260906074034 | 68 | 0 | 0.0 | 1.0 | 0.00 | 0.00 | 0.00 | 96 | 1013.2 |
| 20260906073539 | 68 | 0 | 0.0 | 1.0 | 0.00 | 0.00 | 0.00 | 96 | 1013.1 |
| 20260906073100 | 68 | 0 | 0.0 | 1.0 | 0.00 | 0.00 | 0.00 | 96 | 1013.0 |
| 20260906072534 | 68 | 297 | 1.0 | 1.0 | 0.00 | 0.00 | 0.00 | 95 | 1013.1 |
| 20260906072034 | 69 | 0 | 0.0 | 0.0 | 0.00 | 0.00 | 0.00 | 95 | 1013.0 |
| 20260906071556 | 69 | 0 | 0.0 | 0.0 | 0.00 | 0.00 | 0.00 | 95 | 1013.0 |
| 20260906071034 | 69 | 0 | 0.0 | 0.0 | 0.00 | 0.00 | 0.00 | 95 | 1013.1 |
| 20260906070535 | 69 | 0 | 0.0 | 0.0 | 0.00 | 0.00 | 0.00 | 94 | 1013.1 |
| 20260906070050 | 70 | 0 | 0.0 | 0.0 | 0.00 | 0.00 | 0.00 | 95 | 1013.2 |
| 20260906065535 | 70 | 0 | 0.0 | 0.0 | 0.00 | 0.00 | 0.00 | 95 | 1013.4 |
| 20260906065035 | 70 | 0 | 0.0 | 0.0 | 0.00 | 0.00 | 0.00 | 95 | 1013.3 |
| 20260906064548 | 70 | 0 | 0.0 | 0.0 | 0.00 | 0.00 | 0.00 | 95 | 1013.4 |
| 20260906064035 | 69 | 0 | 0.0 | 0.0 | 0.00 | 0.00 | 0.00 | 95 | 1013.4 |
| 20260906063534 | 70 | 0 | 0.0 | 0.0 | 0.00 | 0.00 | 0.00 | 94 | 1013.6 |
| 20260906063051 | 70 | 0 | 0.0 | 0.0 | 0.00 | 0.00 | 0.00 | 94 | 1013.5 |
| 20260906062537 | 70 | 0 | 0.0 | 0.0 | 0.00 | 0.00 | 0.00 | 95 | 1013.4 |
| 20260906062033 | 70 | 0 | 0.0 | 0.0 | 0.00 | 0.00 | 0.00 | 95 | 1013.5 |
| 20260906061559 | 70 | 0 | 0.0 | 0.0 | 0.00 | 0.00 | 0.00 | 95 | 1013.5 |
| 20260906061034 | 69 | 0 | 0.0 | 0.0 | 0.00 | 0.00 | 0.00 | 94 | 1013.6 |
| 20260906060534 | 70 | 0 | 0.0 | 1.0 | 0.00 | 0.00 | 0.00 | 93 | 1013.5 |
| 20260906060058 | 70 | 0 | 0.0 | 2.0 | 0.00 | 0.00 | 0.00 | 93 | 1013.5 |
| 20260906055534 | 70 | 0 | 1.0 | 2.0 | 0.00 | 0.00 | 0.00 | 92 | 1013.5 |
| 20260906055034 | 71 | 0 | 0.0 | 0.0 | 0.00 | 0.00 | 0.00 | 93 | 1013.6 |
| 20260906054602 | 71 | 0 | 0.0 | 0.0 | 0.00 | 0.00 | 0.00 | 92 | 1013.5 |
| 20260906054034 | 71 | 0 | 0.0 | 0.0 | 0.00 | 0.00 | 0.00 | 92 | 1013.6 |
| 20260906053533 | 71 | 0 | 0.0 | 0.0 | 0.00 | 0.00 | 0.00 | 91 | 1013.7 |
| 20260906053050 | 72 | 0 | 0.0 | 0.0 | 0.00 | 0.00 | 0.00 | 89 | 1013.6 |
| 20260906052534 | 73 | 0 | 0.0 | 0.0 | 0.00 | 0.00 | 0.00 | 89 | 1013.7 |
| 20260906052034 | 73 | 0 | 0.0 | 0.0 | 0.00 | 0.00 | 0.00 | 90 | 1013.6 |
| 20260906051558 | 72 | 0 | 0.0 | 0.0 | 0.00 | 0.00 | 0.00 | 91 | 1013.8 |
| 20260906051033 | 72 | 0 | 0.0 | 0.0 | 0.00 | 0.00 | 0.00 | 90 | 1013.6 |
| 20260906050533 | 72 | 0 | 0.0 | 0.0 | 0.00 | 0.00 | 0.00 | 90 | 1013.7 |
| 20260906050106 | 72 | 0 | 0.0 | 0.0 | 0.00 | 0.00 | 0.00 | 89 | 1013.7 |
| 20260906045534 | 73 | 0 | 0.0 | 0.0 | 0.00 | 0.00 | 0.00 | 89 | 1013.9 |
| 20260906045034 | 73 | 0 | 0.0 | 0.0 | 0.00 | 0.00 | 0.00 | 89 | 1013.9 |
| 20260906044557 | 73 | 0 | 0.0 | 0.0 | 0.00 | 0.00 | 0.00 | 88 | 1013.9 |
| 20260906044037 | 73 | 0 | 0.0 | 0.0 | 0.00 | 0.00 | 0.00 | 88 | 1013.9 |
| 20260906043537 | 73 | 0 | 0.0 | 1.0 | 0.00 | 0.00 | 0.00 | 88 | 1013.9 |
| 20260906043048 | 73 | 0 | 0.0 | 1.0 | 0.00 | 0.00 | 0.00 | 87 | 1014.0 |
| 20260906042533 | 73 | 0 | 0.0 | 2.0 | 0.00 | 0.00 | 0.00 | 86 | 1014.1 |
| 20260906042033 | 74 | 0 | 0.0 | 2.0 | 0.00 | 0.00 | 0.00 | 85 | 1014.1 |
| 20260906041547 | 74 | 103 | 0.0 | 2.0 | 0.00 | 0.00 | 0.00 | 86 | 1014.1 |
| 20260906041034 | 74 | 0 | 0.0 | 0.0 | 0.00 | 0.00 | 0.00 | 85 | 1014.1 |
| 20260906040533 | 74 | 0 | 0.0 | 3.0 | 0.00 | 0.00 | 0.00 | 85 | 1014.0 |
| 20260906035537 | 74 | 0 | 0.0 | 2.0 | 0.00 | 0.00 | 0.00 | 85 | 1013.8 |
| 20260906035034 | 73 | 0 | 0.0 | 2.0 | 0.00 | 0.00 | 0.00 | 85 | 1013.9 |
| 20260906034550 | 73 | 127 | 0.0 | 1.0 | 0.00 | 0.00 | 0.00 | 83 | 1013.7 |
| 20260906034033 | 74 | 0 | 0.0 | 0.0 | 0.00 | 0.00 | 0.00 | 82 | 1013.6 |
| 20260906033533 | 74 | 0 | 0.0 | 0.0 | 0.00 | 0.00 | 0.00 | 81 | 1013.8 |
| 20260906033049 | 74 | 0 | 0.0 | 1.0 | 0.00 | 0.00 | 0.00 | 81 | 1013.7 |
| 20260906032534 | 73 | 0 | 0.0 | 1.0 | 0.00 | 0.00 | 0.00 | 81 | 1013.7 |
| 20260906032033 | 73 | 0 | 0.0 | 1.0 | 0.00 | 0.00 | 0.00 | 81 | 1013.6 |
| 20260906031552 | 74 | 0 | 0.0 | 0.0 | 0.00 | 0.00 | 0.00 | 81 | 1013.6 |
| 20260906031034 | 74 | 0 | 0.0 | 0.0 | 0.00 | 0.00 | 0.00 | 80 | 1013.6 |
| 20260906030534 | 75 | 0 | 0.0 | 0.0 | 0.00 | 0.00 | 0.00 | 79 | 1013.7 |
| 20260906030049 | 76 | 0 | 0.0 | 0.0 | 0.00 | 0.00 | 0.00 | 78 | 1013.6 |
| 20260906025533 | 77 | 0 | 0.0 | 2.0 | 0.00 | 0.00 | 0.00 | 74 | 1013.6 |
| 20260906025034 | 77 | 0 | 0.0 | 2.0 | 0.00 | 0.00 | 0.00 | 74 | 1013.6 |
| 20260906024600 | 77 | 345 | 1.0 | 2.0 | 0.00 | 0.00 | 0.00 | 73 | 1013.5 |
| 20260906024033 | 77 | 329 | 0.0 | 1.0 | 0.00 | 0.00 | 0.00 | 73 | 1013.6 |
| 20260906023534 | 77 | 0 | 0.0 | 0.0 | 0.00 | 0.00 | 0.00 | 73 | 1013.8 |
| 20260906023052 | 78 | 0 | 0.0 | 3.0 | 0.00 | 0.00 | 0.00 | 73 | 1013.6 |
| 20260906022534 | 78 | 0 | 1.0 | 3.0 | 0.00 | 0.00 | 0.00 | 72 | 1013.5 |
| 20260906022034 | 78 | 352 | 2.0 | 3.0 | 0.00 | 0.00 | 0.00 | 71 | 1013.7 |
| 20260906021551 | 78 | 350 | 0.0 | 2.0 | 0.00 | 0.00 | 0.00 | 72 | 1013.5 |
| 20260906021035 | 78 | 0 | 0.0 | 0.0 | 0.00 | 0.00 | 0.00 | 72 | 1013.4 |
| 20260906020534 | 78 | 0 | 0.0 | 0.0 | 0.00 | 0.00 | 0.00 | 71 | 1013.3 |
| 20260906020059 | 79 | 0 | 0.0 | 0.0 | 0.00 | 0.00 | 0.00 | 70 | 1013.3 |
| 20260906015533 | 80 | 0 | 0.0 | 3.0 | 0.00 | 0.00 | 0.00 | 68 | 1013.3 |
| 20260906015033 | 81 | 0 | 1.0 | 4.0 | 0.00 | 0.00 | 0.00 | 67 | 1013.3 |
| 20260906014638 | 81 | 7 | 2.0 | 5.0 | 0.00 | 0.00 | 0.00 | 66 | 1013.2 |
| 20260906014033 | 81 | 331 | 2.0 | 5.0 | 0.00 | 0.00 | 0.00 | 66 | 1013.3 |
| 20260906013534 | 81 | 335 | 1.0 | 7.0 | 0.00 | 0.00 | 0.00 | 65 | 1013.2 |
| 20260906013058 | 81 | 18 | 4.0 | 7.0 | 0.00 | 0.00 | 0.00 | 65 | 1013.3 |
| 20260906012533 | 81 | 6 | 2.0 | 6.0 | 0.00 | 0.00 | 0.00 | 65 | 1013.2 |
| 20260906012036 | 82 | 290 | 2.0 | 11.0 | 0.00 | 0.00 | 0.00 | 64 | 1013.1 |
| 20260906011548 | 82 | 357 | 4.0 | 11.0 | 0.00 | 0.00 | 0.00 | 63 | 1013.1 |
| 20260906011034 | 82 | 11 | 4.0 | 8.0 | 0.00 | 0.00 | 0.00 | 64 | 1012.8 |
| 20260906010534 | 82 | 335 | 2.0 | 13.0 | 0.00 | 0.00 | 0.00 | 64 | 1012.7 |
| 20260906010101 | 82 | 356 | 5.0 | 13.0 | 0.00 | 0.00 | 0.00 | 64 | 1012.8 |
| 20260906005533 | 82 | 336 | 5.0 | 12.0 | 0.00 | 0.00 | 0.00 | 63 | 1012.6 |
| 20260906005034 | 82 | 35 | 5.0 | 12.0 | 0.00 | 0.00 | 0.00 | 64 | 1012.5 |
| 20260906004606 | 81 | 20 | 6.0 | 10.0 | 0.00 | 0.00 | 0.00 | 65 | 1012.5 |
| 20260906004036 | 80 | 311 | 2.0 | 9.0 | 0.00 | 0.00 | 0.00 | 67 | 1012.4 |
| 20260906003535 | 79 | 26 | 2.0 | 9.0 | 0.00 | 0.00 | 0.00 | 69 | 1012.7 |
| 20260906003059 | 79 | 295 | 1.0 | 2.0 | 0.00 | 0.00 | 0.00 | 71 | 1012.6 |
| 20260906002533 | 79 | 29 | 0.0 | 2.0 | 0.00 | 0.00 | 0.00 | 71 | 1012.4 |
| 20260906002034 | 80 | 307 | 0.0 | 2.0 | 0.00 | 0.00 | 0.00 | 70 | 1012.2 |
| 20260906001557 | 80 | 0 | 0.0 | 2.0 | 0.00 | 0.00 | 0.00 | 68 | 1012.4 |
| 20260906001034 | 80 | 0 | 0.0 | 3.0 | 0.00 | 0.00 | 0.00 | 69 | 1012.2 |
| 20260906000536 | 80 | 0 | 0.0 | 3.0 | 0.00 | 0.00 | 0.00 | 67 | 1012.3 |
| 20260906000100 | 81 | 0 | 1.0 | 3.0 | 0.00 | 0.00 | 0.00 | 71 | 1012.2 |
| 20260905235533 | 81 | 0 | 1.0 | 3.0 | 0.00 | 0.00 | 0.00 | 70 | 1012.1 |
| 20260905235033 | 81 | 355 | 1.0 | 3.0 | 0.00 | 0.00 | 0.00 | 66 | 1012.2 |
| 20260905234603 | 82 | 293 | 0.0 | 3.0 | 0.00 | 0.00 | 0.00 | 63 | 1012.2 |
| 20260905234034 | 82 | 306 | 1.0 | 6.0 | 0.00 | 0.00 | 0.00 | 63 | 1012.1 |
| 20260905233535 | 82 | 0 | 0.0 | 6.0 | 0.00 | 0.00 | 0.00 | 64 | 1012.0 |
| 20260905233059 | 82 | 23 | 1.0 | 2.0 | 0.00 | 0.00 | 0.00 | 64 | 1012.0 |
| 20260905232534 | 83 | 300 | 1.0 | 2.0 | 0.00 | 0.00 | 0.00 | 64 | 1012.0 |
| 20260905232034 | 83 | 276 | 0.0 | 2.0 | 0.00 | 0.00 | 0.00 | 63 | 1012.1 |
| 20260905231557 | 84 | 286 | 1.0 | 2.0 | 0.00 | 0.00 | 0.00 | 63 | 1012.0 |
| 20260905231036 | 84 | 287 | 1.0 | 4.0 | 0.00 | 0.00 | 0.00 | 63 | 1012.0 |
| 20260905230534 | 85 | 284 | 2.0 | 4.0 | 0.00 | 0.00 | 0.00 | 63 | 1011.9 |
| 20260905230053 | 86 | 283 | 2.0 | 4.0 | 0.00 | 0.00 | 0.00 | 60 | 1011.9 |
| 20260905225534 | 87 | 271 | 1.0 | 3.0 | 0.00 | 0.01 | 0.00 | 61 | 1011.9 |
| 20260905225033 | 88 | 308 | 0.0 | 4.0 | 0.00 | 0.01 | 0.00 | 62 | 1011.9 |
| 20260905224548 | 89 | 62 | 1.0 | 4.0 | 0.00 | 0.01 | 0.00 | 60 | 1012.1 |
| 20260905224035 | 90 | 0 | 0.0 | 0.0 | 0.00 | 0.01 | 0.00 | 62 | 1012.0 |
| 20260905223534 | 90 | 0 | 0.0 | 0.0 | 0.00 | 0.01 | 0.00 | 61 | 1012.0 |
| 20260905223058 | 90 | 0 | 0.0 | 0.0 | 0.00 | 0.01 | 0.00 | 62 | 1012.1 |
| 20260905222534 | 89 | 0 | 0.0 | 0.0 | 0.00 | 0.01 | 0.00 | 64 | 1011.9 |
| 20260905222037 | 88 | 0 | 0.0 | 0.0 | 0.00 | 0.01 | 0.00 | 63 | 1012.1 |
| 20260905221611 | 87 | 0 | 0.0 | 0.0 | 0.00 | 0.01 | 0.00 | 65 | 1012.1 |
| 20260905221038 | 87 | 0 | 0.0 | 3.0 | 0.00 | 0.01 | 0.00 | 65 | 1012.0 |
| 20260905220536 | 86 | 0 | 0.0 | 3.0 | 0.00 | 0.01 | 0.00 | 67 | 1012.0 |
| 20260905220049 | 86 | 286 | 2.0 | 3.0 | 0.00 | 0.01 | 0.00 | 65 | 1011.9 |
| 20260905215535 | 86 | 300 | 1.0 | 2.0 | 0.00 | 0.01 | 0.00 | 66 | 1011.9 |
| 20260905215035 | 86 | 298 | 0.0 | 2.0 | 0.00 | 0.01 | 0.00 | 66 | 1011.9 |
| 20260905214601 | 86 | 0 | 0.0 | 3.0 | 0.00 | 0.01 | 0.00 | 65 | 1012.2 |
| 20260905214034 | 86 | 269 | 1.0 | 3.0 | 0.00 | 0.01 | 0.00 | 64 | 1012.1 |
| 20260905213536 | 86 | 275 | 1.0 | 3.0 | 0.00 | 0.01 | 0.00 | 64 | 1012.2 |
| 20260905213103 | 86 | 0 | 0.0 | 2.0 | 0.00 | 0.01 | 0.00 | 66 | 1012.1 |
| 20260905212534 | 86 | 268 | 1.0 | 3.0 | 0.00 | 0.01 | 0.00 | 65 | 1012.1 |
| 20260905212033 | 86 | 0 | 1.0 | 3.0 | 0.00 | 0.01 | 0.00 | 64 | 1012.1 |
| 20260905211550 | 86 | 261 | 1.0 | 3.0 | 0.00 | 0.01 | 0.00 | 65 | 1012.0 |
| 20260905211034 | 86 | 0 | 1.0 | 3.0 | 0.00 | 0.01 | 0.00 | 65 | 1012.1 |
| 20260905210534 | 86 | 269 | 1.0 | 3.0 | 0.00 | 0.01 | 0.00 | 66 | 1012.0 |
| 20260905210059 | 85 | 272 | 0.0 | 2.0 | 0.00 | 0.01 | 0.00 | 67 | 1011.9 |
| 20260905205533 | 85 | 263 | 0.0 | 3.0 | 0.00 | 0.01 | 0.00 | 67 | 1011.8 |
| 20260905205036 | 85 | 0 | 0.0 | 4.0 | 0.00 | 0.01 | 0.00 | 67 | 1012.0 |
| 20260905204555 | 85 | 276 | 1.0 | 4.0 | 0.00 | 0.01 | 0.00 | 68 | 1012.1 |
| 20260905204034 | 85 | 270 | 2.0 | 5.0 | 0.00 | 0.01 | 0.00 | 66 | 1012.2 |
| 20260905203534 | 85 | 265 | 0.0 | 5.0 | 0.00 | 0.01 | 0.00 | 69 | 1012.3 |
| 20260905203053 | 85 | 266 | 1.0 | 5.0 | 0.00 | 0.01 | 0.00 | 66 | 1012.2 |
| 20260905202533 | 85 | 296 | 2.0 | 5.0 | 0.00 | 0.01 | 0.00 | 67 | 1012.1 |
| 20260905202035 | 86 | 248 | 2.0 | 5.0 | 0.00 | 0.01 | 0.00 | 65 | 1012.1 |
| 20260905201609 | 86 | 0 | 0.0 | 2.0 | 0.00 | 0.01 | 0.00 | 67 | 1012.0 |
| 20260905201034 | 86 | 266 | 0.0 | 2.0 | 0.00 | 0.01 | 0.00 | 68 | 1011.9 |
| 20260905200534 | 85 | 231 | 0.0 | 3.0 | 0.00 | 0.01 | 0.00 | 69 | 1011.8 |
| 20260905200051 | 85 | 233 | 1.0 | 7.0 | 0.00 | 0.01 | 0.00 | 69 | 1012.0 |
| 20260905195534 | 85 | 160 | 2.0 | 7.0 | 0.00 | 0.01 | 0.00 | 69 | 1011.9 |
| 20260905195034 | 85 | 161 | 2.0 | 7.0 | 0.00 | 0.01 | 0.00 | 68 | 1011.8 |
| 20260905194557 | 85 | 131 | 1.0 | 3.0 | 0.00 | 0.01 | 0.00 | 70 | 1011.9 |
| 20260905194034 | 85 | 0 | 0.0 | 4.0 | 0.00 | 0.01 | 0.00 | 69 | 1012.1 |
| 20260905193536 | 85 | 223 | 1.0 | 4.0 | 0.00 | 0.01 | 0.00 | 69 | 1012.1 |
| 20260905193107 | 85 | 141 | 0.0 | 2.0 | 0.00 | 0.01 | 0.00 | 70 | 1012.0 |
| 20260905192534 | 84 | 110 | 0.0 | 3.0 | 0.00 | 0.01 | 0.00 | 71 | 1011.8 |
| 20260905192035 | 84 | 234 | 1.0 | 4.0 | 0.00 | 0.01 | 0.00 | 71 | 1011.6 |
| 20260905191549 | 83 | 0 | 1.0 | 4.0 | 0.00 | 0.01 | 0.00 | 73 | 1011.8 |
| 20260905191034 | 83 | 172 | 1.0 | 4.0 | 0.00 | 0.01 | 0.00 | 73 | 1011.5 |
| 20260905190534 | 83 | 181 | 0.0 | 4.0 | 0.00 | 0.01 | 0.00 | 72 | 1011.5 |
| 20260905185535 | 82 | 116 | 2.0 | 5.0 | 0.00 | 0.01 | 0.00 | 73 | 1011.0 |
| 20260905185035 | 81 | 143 | 1.0 | 2.0 | 0.00 | 0.01 | 0.00 | 76 | 1011.3 |
| 20260905184557 | 81 | 0 | 0.0 | 1.0 | 0.00 | 0.01 | 0.00 | 76 | 1011.4 |
| 20260905184036 | 81 | 0 | 0.0 | 3.0 | 0.00 | 0.01 | 0.00 | 77 | 1011.7 |
| 20260905183534 | 80 | 0 | 1.0 | 4.0 | 0.00 | 0.01 | 0.00 | 79 | 1011.9 |
| 20260905183100 | 80 | 0 | 0.0 | 4.0 | 0.00 | 0.01 | 0.00 | 77 | 1012.0 |
| 20260905182536 | 80 | 189 | 2.0 | 4.0 | 0.00 | 0.01 | 0.00 | 80 | 1011.9 |
| 20260905182034 | 80 | 226 | 1.0 | 2.0 | 0.00 | 0.01 | 0.00 | 78 | 1012.3 |
| 20260905181609 | 80 | 0 | 0.0 | 0.0 | 0.00 | 0.01 | 0.00 | 77 | 1012.5 |
| 20260905181036 | 80 | 0 | 0.0 | 3.0 | 0.00 | 0.01 | 0.00 | 77 | 1012.8 |
| 20260905180534 | 80 | 0 | 0.0 | 6.0 | 0.00 | 0.01 | 0.00 | 76 | 1013.0 |
| 20260905180127 | 80 | 259 | 2.0 | 6.0 | 0.00 | 0.01 | 0.00 | 74 | 1013.2 |
| 20260905175535 | 81 | 308 | 3.0 | 16.0 | 0.00 | 0.01 | 0.00 | 73 | 1013.1 |
| 20260905175038 | 82 | 288 | 3.0 | 16.0 | 0.00 | 0.01 | 0.00 | 71 | 1013.2 |
| 20260905174556 | 83 | 277 | 5.0 | 13.0 | 0.00 | 0.01 | 0.00 | 68 | 1013.2 |
| 20260905174035 | 84 | 295 | 4.0 | 8.0 | 0.00 | 0.01 | 0.00 | 69 | 1013.5 |
| 20260905173535 | 84 | 289 | 4.0 | 8.0 | 0.00 | 0.01 | 0.00 | 68 | 1013.7 |
| 20260905173051 | 85 | 288 | 4.0 | 9.0 | 0.00 | 0.01 | 0.00 | 69 | 1013.8 |
| 20260905172534 | 85 | 289 | 3.0 | 10.0 | 0.00 | 0.01 | 0.00 | 69 | 1013.9 |
| 20260905172034 | 86 | 336 | 4.0 | 10.0 | 0.00 | 0.01 | 0.00 | 68 | 1014.2 |
| 20260905171557 | 86 | 327 | 5.0 | 11.0 | 0.00 | 0.01 | 0.00 | 67 | 1014.2 |
| 20260905171034 | 87 | 286 | 4.0 | 11.0 | 0.00 | 0.01 | 0.00 | 67 | 1014.1 |
| 20260905170534 | 87 | 326 | 6.0 | 11.0 | 0.00 | 0.01 | 0.00 | 67 | 1014.2 |
| 20260905170050 | 88 | 316 | 5.0 | 14.0 | 0.00 | 0.01 | 0.00 | 67 | 1014.2 |
| 20260905165535 | 88 | 28 | 6.0 | 14.0 | 0.00 | 0.01 | 0.00 | 65 | 1014.2 |
| 20260905165034 | 89 | 329 | 5.0 | 14.0 | 0.00 | 0.01 | 0.00 | 64 | 1014.1 |
| 20260905164546 | 90 | 352 | 5.0 | 11.0 | 0.00 | 0.01 | 0.00 | 61 | 1014.1 |
| 20260905164035 | 91 | 349 | 4.0 | 10.0 | 0.00 | 0.01 | 0.00 | 60 | 1013.9 |
| 20260905163534 | 91 | 283 | 4.0 | 12.0 | 0.00 | 0.01 | 0.00 | 59 | 1014.0 |
| 20260905163058 | 92 | 32 | 4.0 | 12.0 | 0.00 | 0.01 | 0.00 | 59 | 1013.9 |
| 20260905162535 | 92 | 39 | 5.0 | 12.0 | 0.00 | 0.01 | 0.00 | 60 | 1013.9 |
| 20260905162034 | 92 | 327 | 5.0 | 12.0 | 0.00 | 0.01 | 0.00 | 57 | 1013.9 |
| 20260905161600 | 92 | 295 | 4.0 | 10.0 | 0.00 | 0.01 | 0.00 | 58 | 1014.0 |
| 20260905161034 | 91 | 13 | 3.0 | 10.0 | 0.00 | 0.01 | 0.00 | 60 | 1014.2 |
| 20260905160533 | 91 | 15 | 6.0 | 11.0 | 0.00 | 0.01 | 0.00 | 59 | 1014.4 |
| 20260905160048 | 91 | 302 | 5.0 | 11.0 | 0.00 | 0.01 | 0.00 | 59 | 1014.2 |
| 20260905155536 | 91 | 290 | 5.0 | 10.0 | 0.00 | 0.01 | 0.00 | 61 | 1014.3 |
| 20260905155035 | 91 | 286 | 4.0 | 10.0 | 0.00 | 0.01 | 0.00 | 58 | 1014.2 |
| 20260905154611 | 91 | 329 | 4.0 | 10.0 | 0.00 | 0.01 | 0.00 | 59 | 1014.2 |
| 20260905154036 | 91 | 311 | 4.0 | 9.0 | 0.00 | 0.01 | 0.00 | 62 | 1014.4 |
| 20260905153534 | 90 | 347 | 3.0 | 9.0 | 0.00 | 0.01 | 0.00 | 65 | 1014.4 |
| 20260905153057 | 91 | 27 | 2.0 | 8.0 | 0.00 | 0.01 | 0.00 | 62 | 1014.5 |
| 20260905152534 | 90 | 33 | 2.0 | 13.0 | 0.00 | 0.01 | 0.00 | 61 | 1014.5 |
| 20260905152035 | 90 | 52 | 5.0 | 13.0 | 0.00 | 0.01 | 0.00 | 61 | 1014.5 |
| 20260905151601 | 90 | 300 | 5.0 | 9.0 | 0.00 | 0.01 | 0.00 | 59 | 1014.5 |
| 20260905151033 | 91 | 350 | 3.0 | 7.0 | 0.00 | 0.01 | 0.00 | 61 | 1014.4 |
| 20260905150533 | 92 | 52 | 1.0 | 5.0 | 0.00 | 0.01 | 0.00 | 60 | 1014.4 |
| 20260905150048 | 92 | 0 | 1.0 | 3.0 | 0.00 | 0.01 | 0.00 | 61 | 1014.4 |
| 20260905145535 | 91 | 108 | 0.0 | 4.0 | 0.00 | 0.01 | 0.00 | 62 | 1014.3 |
| 20260905145034 | 90 | 0 | 0.0 | 4.0 | 0.00 | 0.01 | 0.00 | 65 | 1014.3 |
| 20260905144558 | 90 | 8 | 1.0 | 4.0 | 0.00 | 0.01 | 0.00 | 63 | 1014.4 |
| 20260905144035 | 89 | 97 | 1.0 | 3.0 | 0.00 | 0.01 | 0.00 | 66 | 1014.4 |
| 20260905143538 | 89 | 132 | 2.0 | 4.0 | 0.00 | 0.01 | 0.00 | 70 | 1014.3 |
| 20260905143056 | 88 | 176 | 2.0 | 4.0 | 0.00 | 0.01 | 0.00 | 71 | 1014.4 |
| 20260905142535 | 88 | 137 | 1.0 | 5.0 | 0.00 | 0.01 | 0.00 | 72 | 1014.4 |
| 20260905142038 | 87 | 175 | 3.0 | 5.0 | 0.00 | 0.01 | 0.00 | 73 | 1014.4 |
| 20260905141552 | 86 | 121 | 3.0 | 5.0 | 0.00 | 0.01 | 0.00 | 74 | 1014.4 |
| 20260905141033 | 86 | 136 | 2.0 | 4.0 | 0.00 | 0.01 | 0.00 | 74 | 1014.3 |
| 20260905140534 | 86 | 122 | 2.0 | 4.0 | 0.00 | 0.01 | 0.00 | 76 | 1014.2 |
| 20260905135534 | 86 | 168 | 2.0 | 5.0 | 0.00 | 0.01 | 0.00 | 71 | 1014.2 |
| 20260905135035 | 87 | 113 | 1.0 | 4.0 | 0.00 | 0.01 | 0.00 | 71 | 1014.2 |
| 20260905134556 | 86 | 0 | 2.0 | 3.0 | 0.00 | 0.01 | 0.00 | 77 | 1014.1 |
| 20260905134034 | 86 | 0 | 0.0 | 0.0 | 0.00 | 0.01 | 0.00 | 74 | 1014.2 |
| 20260905133534 | 86 | 0 | 0.0 | 0.0 | 0.00 | 0.01 | 0.00 | 75 | 1014.1 |
| 20260905133049 | 85 | 0 | 0.0 | 0.0 | 0.00 | 0.01 | 0.00 | 74 | 1014.2 |
| 20260905132534 | 84 | 0 | 0.0 | 0.0 | 0.00 | 0.01 | 0.00 | 77 | 1014.2 |
| 20260905132035 | 84 | 0 | 0.0 | 1.0 | 0.00 | 0.01 | 0.00 | 75 | 1014.2 |
| 20260905131607 | 83 | 0 | 0.0 | 1.0 | 0.00 | 0.01 | 0.00 | 77 | 1014.1 |
| 20260905131034 | 82 | 0 | 0.0 | 2.0 | 0.00 | 0.01 | 0.00 | 78 | 1014.2 |
| 20260905130536 | 82 | 0 | 0.0 | 2.0 | 0.00 | 0.01 | 0.00 | 78 | 1014.1 |
| 20260905130055 | 82 | 0 | 0.0 | 0.0 | 0.00 | 0.01 | 0.00 | 82 | 1014.2 |
| 20260905125534 | 80 | 0 | 0.0 | 0.0 | 0.00 | 0.01 | 0.00 | 85 | 1014.4 |
| 20260905125034 | 79 | 0 | 0.0 | 0.0 | 0.00 | 0.01 | 0.00 | 85 | 1014.3 |
| 20260905124552 | 79 | 0 | 0.0 | 0.0 | 0.00 | 0.01 | 0.00 | 85 | 1014.4 |
| 20260905124034 | 78 | 0 | 0.0 | 0.0 | 0.00 | 0.01 | 0.00 | 85 | 1014.3 |
| 20260905123533 | 78 | 0 | 0.0 | 0.0 | 0.00 | 0.01 | 0.00 | 86 | 1014.3 |
| 20260905123049 | 77 | 0 | 0.0 | 0.0 | 0.00 | 0.01 | 0.00 | 88 | 1014.1 |
| 20260905122533 | 76 | 0 | 0.0 | 0.0 | 0.00 | 0.01 | 0.00 | 89 | 1014.4 |
| 20260905122034 | 75 | 0 | 0.0 | 0.0 | 0.00 | 0.01 | 0.00 | 91 | 1014.3 |
| 20260905121558 | 74 | 0 | 0.0 | 0.0 | 0.00 | 0.01 | 0.00 | 91 | 1014.2 |
| 20260905121034 | 73 | 0 | 0.0 | 3.0 | 0.00 | 0.01 | 0.00 | 93 | 1014.2 |
| 20260905120534 | 72 | 0 | 0.0 | 3.0 | 0.00 | 0.01 | 0.00 | 93 | 1014.0 |
| 20260905120052 | 72 | 0 | 0.0 | 1.0 | 0.00 | 0.01 | 0.00 | 96 | 1014.0 |
| 20260905115534 | 71 | 0 | 0.0 | 1.0 | 0.00 | 0.01 | 0.00 | 97 | 1013.9 |
| 20260905115035 | 70 | 0 | 0.0 | 1.0 | 0.00 | 0.01 | 0.00 | 97 | 1013.7 |
| 20260905114550 | 70 | 326 | 0.0 | 1.0 | 0.00 | 0.01 | 0.00 | 98 | 1013.8 |
| 20260905114033 | 69 | 0 | 0.0 | 1.0 | 0.00 | 0.01 | 0.00 | 98 | 1013.7 |
| 20260905113534 | 68 | 0 | 0.0 | 0.0 | 0.00 | 0.01 | 0.00 | 98 | 1013.7 |
| 20260905113047 | 68 | 0 | 0.0 | 0.0 | 0.00 | 0.01 | 0.00 | 97 | 1013.7 |
| 20260905112534 | 68 | 0 | 0.0 | 0.0 | 0.00 | 0.01 | 0.00 | 98 | 1013.8 |
| 20260905112036 | 67 | 0 | 0.0 | 0.0 | 0.00 | 0.01 | 0.00 | 98 | 1013.8 |
| 20260905111604 | 67 | 0 | 0.0 | 0.0 | 0.00 | 0.01 | 0.00 | 98 | 1013.8 |
| 20260905111034 | 67 | 0 | 0.0 | 0.0 | 0.00 | 0.01 | 0.00 | 98 | 1013.9 |
| 20260905110537 | 67 | 0 | 0.0 | 0.0 | 0.00 | 0.01 | 0.00 | 98 | 1014.0 |
| 20260905110057 | 67 | 0 | 0.0 | 0.0 | 0.00 | 0.01 | 0.00 | 98 | 1013.9 |
| 20260905105534 | 67 | 0 | 0.0 | 0.0 | 0.00 | 0.01 | 0.00 | 98 | 1013.7 |
| 20260905105033 | 67 | 0 | 0.0 | 0.0 | 0.00 | 0.01 | 0.00 | 98 | 1013.8 |